Year,Month,Day,Hour,Minute,Value (Times are PST for temperature in C)
2018,12,06,00,00,-25.10
2018,12,06,00,01,-25.10
2018,12,06,00,02,-25.00
2018,12,06,00,03,-25.00
2018,12,06,00,04,-24.90
2018,12,06,00,05,-24.90
2018,12,06,00,06,-24.90
2018,12,06,00,07,-24.80
2018,12,06,00,08,-24.80
2018,12,06,00,09,-24.80
2018,12,06,00,10,-24.70
2018,12,06,00,11,-24.70
2018,12,06,00,12,-24.70
2018,12,06,00,13,-24.60
2018,12,06,00,14,-24.60
2018,12,06,00,15,-24.60
2018,12,06,00,16,-24.50
2018,12,06,00,17,-24.50
2018,12,06,00,18,-24.50
2018,12,06,00,19,-24.50
2018,12,06,00,20,-24.40
2018,12,06,00,21,-24.40
2018,12,06,00,22,-24.40
2018,12,06,00,23,-24.30
2018,12,06,00,24,-24.30
2018,12,06,00,25,-24.30
2018,12,06,00,26,-24.30
2018,12,06,00,27,-24.20
2018,12,06,00,28,-24.20
2018,12,06,00,29,-24.20
2018,12,06,00,30,-24.20
2018,12,06,00,31,-24.10
2018,12,06,00,32,-24.10
2018,12,06,00,33,-24.10
2018,12,06,00,34,-24.10
2018,12,06,00,35,-24.10
2018,12,06,00,36,-24.00
2018,12,06,00,37,-24.00
2018,12,06,00,38,-24.00
2018,12,06,00,39,-24.00
2018,12,06,00,40,-24.00
2018,12,06,00,41,-23.90
2018,12,06,00,42,-23.90
2018,12,06,00,43,-23.90
2018,12,06,00,44,-23.90
2018,12,06,00,45,-23.90
2018,12,06,00,46,-23.90
2018,12,06,00,47,-23.70
2018,12,06,00,48,-23.70
2018,12,06,00,49,-23.70
2018,12,06,00,50,-23.60
2018,12,06,00,51,-23.60
2018,12,06,00,52,-23.60
2018,12,06,00,53,-23.60
2018,12,06,00,54,-23.60
2018,12,06,00,55,-23.60
2018,12,06,00,56,-23.60
2018,12,06,00,57,-23.60
2018,12,06,00,58,-23.50
2018,12,06,00,59,-23.50
2018,12,06,01,00,-23.40
2018,12,06,01,01,-23.40
2018,12,06,01,02,-23.30
2018,12,06,01,03,-23.20
2018,12,06,01,04,-23.10
2018,12,06,01,05,-23.10
2018,12,06,01,06,-23.00
2018,12,06,01,07,-22.90
2018,12,06,01,08,-22.80
2018,12,06,01,09,-22.80
2018,12,06,01,10,-22.70
2018,12,06,01,11,-22.60
2018,12,06,01,12,-22.50
2018,12,06,01,13,-22.50
2018,12,06,01,14,-22.40
2018,12,06,01,15,-22.40
2018,12,06,01,16,-22.40
2018,12,06,01,17,-22.50
2018,12,06,01,18,-22.60
2018,12,06,01,19,-22.60
2018,12,06,01,20,-22.70
2018,12,06,01,21,-22.80
2018,12,06,01,22,-22.90
2018,12,06,01,23,-23.00
2018,12,06,01,24,-23.00
2018,12,06,01,25,-23.10
2018,12,06,01,26,-23.20
2018,12,06,01,27,-23.30
2018,12,06,01,28,-23.40
2018,12,06,01,29,-23.60
2018,12,06,01,30,-23.70
2018,12,06,01,31,-23.80
2018,12,06,01,32,-23.90
2018,12,06,01,33,-24.00
2018,12,06,01,34,-24.00
2018,12,06,01,35,-24.00
2018,12,06,01,36,-24.00
2018,12,06,01,37,-24.00
2018,12,06,01,38,-24.00
2018,12,06,01,39,-23.90
2018,12,06,01,40,-23.80
2018,12,06,01,41,-23.70
2018,12,06,01,42,-23.70
2018,12,06,01,43,-23.70
2018,12,06,01,44,-23.60
2018,12,06,01,45,-23.60
2018,12,06,01,46,-23.50
2018,12,06,01,47,-23.60
2018,12,06,01,48,-23.60
2018,12,06,01,49,-23.60
2018,12,06,01,50,-23.60
2018,12,06,01,51,-23.60
2018,12,06,01,52,-23.60
2018,12,06,01,53,-23.60
2018,12,06,01,54,-23.60
2018,12,06,01,55,-23.60
2018,12,06,01,56,-23.60
2018,12,06,01,57,-23.60
2018,12,06,01,58,-23.70
2018,12,06,01,59,-23.60
2018,12,06,02,00,-23.60
2018,12,06,02,01,-23.60
2018,12,06,02,02,-23.50
2018,12,06,02,03,-23.50
2018,12,06,02,04,-23.40
2018,12,06,02,05,-23.30
2018,12,06,02,06,-23.20
2018,12,06,02,07,-23.10
2018,12,06,02,08,-23.10
2018,12,06,02,09,-23.00
2018,12,06,02,10,-23.00
2018,12,06,02,11,-23.00
2018,12,06,02,12,-23.00
2018,12,06,02,13,-23.00
2018,12,06,02,14,-23.00
2018,12,06,02,15,-23.00
2018,12,06,02,16,-23.00
2018,12,06,02,17,-23.00
2018,12,06,02,18,-23.00
2018,12,06,02,19,-23.00
2018,12,06,02,20,-23.00
2018,12,06,02,21,-22.90
2018,12,06,02,22,-23.00
2018,12,06,02,23,-23.00
2018,12,06,02,24,-23.00
2018,12,06,02,25,-23.10
2018,12,06,02,26,-23.20
2018,12,06,02,27,-23.20
2018,12,06,02,28,-23.30
2018,12,06,02,29,-23.40
2018,12,06,02,30,-23.50
2018,12,06,02,31,-23.50
2018,12,06,02,32,-23.60
2018,12,06,02,33,-23.60
2018,12,06,02,34,-23.70
2018,12,06,02,35,-23.70
2018,12,06,02,36,-23.80
2018,12,06,02,37,-23.80
2018,12,06,02,38,-23.80
2018,12,06,02,39,-23.90
2018,12,06,02,40,-23.90
2018,12,06,02,41,-23.90
2018,12,06,02,42,-23.90
2018,12,06,02,43,-23.90
2018,12,06,02,44,-23.90
2018,12,06,02,45,-23.80
2018,12,06,02,46,-23.80
2018,12,06,02,47,-23.70
2018,12,06,02,48,-23.70
2018,12,06,02,49,-23.70
2018,12,06,02,50,-23.60
2018,12,06,02,51,-23.60
2018,12,06,02,52,-23.60
2018,12,06,02,53,-23.50
2018,12,06,02,54,-23.50
2018,12,06,02,55,-23.50
2018,12,06,02,56,-23.40
2018,12,06,02,57,-23.40
2018,12,06,02,58,-23.40
2018,12,06,02,59,-23.40
2018,12,06,03,00,-23.40
2018,12,06,03,01,-23.50
2018,12,06,03,02,-23.50
2018,12,06,03,03,-23.50
2018,12,06,03,04,-23.50
2018,12,06,03,05,-23.40
2018,12,06,03,06,-23.40
2018,12,06,03,07,-23.40
2018,12,06,03,08,-23.30
2018,12,06,03,09,-23.30
2018,12,06,03,10,-23.20
2018,12,06,03,11,-23.20
2018,12,06,03,12,-23.20
2018,12,06,03,13,-23.20
2018,12,06,03,14,-23.30
2018,12,06,03,15,-23.30
2018,12,06,03,16,-23.30
2018,12,06,03,17,-23.30
2018,12,06,03,18,-23.30
2018,12,06,03,19,-23.30
2018,12,06,03,20,-23.30
2018,12,06,03,21,-23.30
2018,12,06,03,22,-23.20
2018,12,06,03,23,-23.20
2018,12,06,03,24,-23.20
2018,12,06,03,25,-23.10
2018,12,06,03,26,-23.10
2018,12,06,03,27,-23.00
2018,12,06,03,28,-23.00
2018,12,06,03,29,-22.90
2018,12,06,03,30,-22.90
2018,12,06,03,31,-22.80
2018,12,06,03,32,-22.80
2018,12,06,03,33,-22.80
2018,12,06,03,34,-22.80
2018,12,06,03,35,-22.70
2018,12,06,03,36,-22.60
2018,12,06,03,37,-22.60
2018,12,06,03,38,-22.50
2018,12,06,03,39,-22.40
2018,12,06,03,40,-22.40
2018,12,06,03,41,-22.30
2018,12,06,03,42,-22.20
2018,12,06,03,43,-22.20
2018,12,06,03,44,-22.10
2018,12,06,03,45,-22.00
2018,12,06,03,46,-22.00
2018,12,06,03,47,-21.90
2018,12,06,03,48,-21.80
2018,12,06,03,49,-21.80
2018,12,06,03,50,-21.70
2018,12,06,03,51,-21.70
2018,12,06,03,52,-21.60
2018,12,06,03,53,-21.50
2018,12,06,03,54,-21.40
2018,12,06,03,55,-21.40
2018,12,06,03,56,-21.30
2018,12,06,03,57,-21.20
2018,12,06,03,58,-21.10
2018,12,06,03,59,-21.00
2018,12,06,04,00,-20.90
2018,12,06,04,01,-20.80
2018,12,06,04,02,-20.70
2018,12,06,04,03,-20.60
2018,12,06,04,04,-20.60
2018,12,06,04,05,-20.50
2018,12,06,04,06,-20.50
2018,12,06,04,07,-20.40
2018,12,06,04,08,-20.40
2018,12,06,04,09,-20.40
2018,12,06,04,10,-20.40
2018,12,06,04,11,-20.40
2018,12,06,04,12,-20.40
2018,12,06,04,13,-20.40
2018,12,06,04,14,-20.40
2018,12,06,04,15,-20.40
2018,12,06,04,16,-20.40
2018,12,06,04,17,-20.50
2018,12,06,04,18,-20.50
2018,12,06,04,19,-20.60
2018,12,06,04,20,-20.60
2018,12,06,04,21,-20.70
2018,12,06,04,22,-20.80
2018,12,06,04,23,-20.80
2018,12,06,04,24,-20.90
2018,12,06,04,25,-20.90
2018,12,06,04,26,-21.00
2018,12,06,04,27,-21.10
2018,12,06,04,28,-21.20
2018,12,06,04,29,-21.20
2018,12,06,04,30,-21.20
2018,12,06,04,31,-21.30
2018,12,06,04,32,-21.30
2018,12,06,04,33,-21.30
2018,12,06,04,34,-21.30
2018,12,06,04,35,-21.30
2018,12,06,04,36,-21.30
2018,12,06,04,37,-21.30
2018,12,06,04,38,-21.30
2018,12,06,04,39,-21.30
2018,12,06,04,40,-21.30
2018,12,06,04,41,-21.20
2018,12,06,04,42,-21.20
2018,12,06,04,43,-21.20
2018,12,06,04,44,-21.20
2018,12,06,04,45,-21.20
2018,12,06,04,46,-21.10
2018,12,06,04,47,-21.10
2018,12,06,04,48,-21.10
2018,12,06,04,49,-21.00
2018,12,06,04,50,-21.00
2018,12,06,04,51,-21.00
2018,12,06,04,52,-21.00
2018,12,06,04,53,-21.00
2018,12,06,04,54,-20.90
2018,12,06,04,55,-20.90
2018,12,06,04,56,-20.90
2018,12,06,04,57,-20.90
2018,12,06,04,58,-20.90
2018,12,06,04,59,-20.80
2018,12,06,05,00,-20.80
2018,12,06,05,01,-20.80
2018,12,06,05,02,-20.70
2018,12,06,05,03,-20.70
2018,12,06,05,04,-20.60
2018,12,06,05,05,-20.60
2018,12,06,05,06,-20.50
2018,12,06,05,07,-20.50
2018,12,06,05,08,-20.50
2018,12,06,05,09,-20.40
2018,12,06,05,10,-20.40
2018,12,06,05,11,-20.30
2018,12,06,05,12,-20.30
2018,12,06,05,13,-20.30
2018,12,06,05,14,-20.20
2018,12,06,05,15,-20.10
2018,12,06,05,16,-20.10
2018,12,06,05,17,-20.10
2018,12,06,05,18,-20.10
2018,12,06,05,19,-20.00
2018,12,06,05,20,-20.00
2018,12,06,05,21,-20.00
2018,12,06,05,22,-20.00
2018,12,06,05,23,-20.00
2018,12,06,05,24,-20.00
2018,12,06,05,25,-19.90
2018,12,06,05,26,-19.90
2018,12,06,05,27,-19.90
2018,12,06,05,28,-19.90
2018,12,06,05,29,-19.90
2018,12,06,05,30,-19.80
2018,12,06,05,31,-19.80
2018,12,06,05,32,-19.80
2018,12,06,05,33,-19.80
2018,12,06,05,34,-19.80
2018,12,06,05,35,-19.80
2018,12,06,05,36,-19.70
2018,12,06,05,37,-19.70
2018,12,06,05,38,-19.70
2018,12,06,05,39,-19.60
2018,12,06,05,40,-19.60
2018,12,06,05,41,-19.50
2018,12,06,05,42,-19.50
2018,12,06,05,43,-19.40
2018,12,06,05,44,-19.40
2018,12,06,05,45,-19.30
2018,12,06,05,46,-19.20
2018,12,06,05,47,-19.20
2018,12,06,05,48,-19.10
2018,12,06,05,49,-19.00
2018,12,06,05,50,-19.00
2018,12,06,05,51,-18.90
2018,12,06,05,52,-18.80
2018,12,06,05,53,-18.80
2018,12,06,05,54,-18.70
2018,12,06,05,55,-18.70
2018,12,06,05,56,-18.70
2018,12,06,05,57,-18.70
2018,12,06,05,58,-18.70
2018,12,06,05,59,-18.70
2018,12,06,06,00,-18.70
2018,12,06,06,01,-18.70
2018,12,06,06,02,-18.70
2018,12,06,06,03,-18.70
2018,12,06,06,04,-18.70
2018,12,06,06,05,-18.80
2018,12,06,06,06,-18.80
2018,12,06,06,07,-18.80
2018,12,06,06,08,-18.80
2018,12,06,06,09,-18.80
2018,12,06,06,10,-18.80
2018,12,06,06,11,-18.80
2018,12,06,06,12,-18.80
2018,12,06,06,13,-18.80
2018,12,06,06,14,-18.80
2018,12,06,06,15,-18.80
2018,12,06,06,16,-18.70
2018,12,06,06,17,-18.70
2018,12,06,06,18,-18.70
2018,12,06,06,19,-18.70
2018,12,06,06,20,-18.70
2018,12,06,06,21,-18.70
2018,12,06,06,22,-18.70
2018,12,06,06,23,-18.70
2018,12,06,06,24,-18.70
2018,12,06,06,25,-18.70
2018,12,06,06,26,-18.70
2018,12,06,06,27,-18.60
2018,12,06,06,28,-18.60
2018,12,06,06,29,-18.60
2018,12,06,06,30,-18.60
2018,12,06,06,31,-18.50
2018,12,06,06,32,-18.50
2018,12,06,06,33,-18.50
2018,12,06,06,34,-18.50
2018,12,06,06,35,-18.50
2018,12,06,06,36,-18.50
2018,12,06,06,37,-18.50
2018,12,06,06,38,-18.50
2018,12,06,06,39,-18.50
2018,12,06,06,40,-18.50
2018,12,06,06,41,-18.50
2018,12,06,06,42,-18.50
2018,12,06,06,43,-18.50
2018,12,06,06,44,-18.50
2018,12,06,06,45,-18.50
2018,12,06,06,46,-18.50
2018,12,06,06,47,-18.50
2018,12,06,06,48,-18.40
2018,12,06,06,49,-18.40
2018,12,06,06,50,-18.40
2018,12,06,06,51,-18.30
2018,12,06,06,52,-18.30
2018,12,06,06,53,-18.30
2018,12,06,06,54,-18.20
2018,12,06,06,55,-18.10
2018,12,06,06,56,-18.10
2018,12,06,06,57,-18.00
2018,12,06,06,58,-18.00
2018,12,06,06,59,-17.90
2018,12,06,07,01,-17.80
2018,12,06,07,02,-17.80
2018,12,06,07,03,-17.80
2018,12,06,07,04,-17.70
2018,12,06,07,05,-17.70
2018,12,06,07,06,-17.70
2018,12,06,07,07,-17.70
2018,12,06,07,08,-17.70
2018,12,06,07,09,-17.70
2018,12,06,07,10,-17.70
2018,12,06,07,11,-17.70
2018,12,06,07,12,-17.70
2018,12,06,07,13,-17.70
2018,12,06,07,14,-17.70
2018,12,06,07,15,-17.70
2018,12,06,07,16,-17.70
2018,12,06,07,17,-17.70
2018,12,06,07,18,-17.70
2018,12,06,07,19,-17.70
2018,12,06,07,20,-17.70
2018,12,06,07,21,-17.70
2018,12,06,07,22,-17.70
2018,12,06,07,23,-17.70
2018,12,06,07,24,-17.70
2018,12,06,07,25,-17.70
2018,12,06,07,26,-17.70
2018,12,06,07,27,-17.70
2018,12,06,07,28,-17.70
2018,12,06,07,29,-17.80
2018,12,06,07,30,-17.80
2018,12,06,07,31,-17.80
2018,12,06,07,32,-17.80
2018,12,06,07,33,-17.80
2018,12,06,07,34,-17.80
2018,12,06,07,35,-17.80
2018,12,06,07,36,-17.80
2018,12,06,07,37,-17.80
2018,12,06,07,38,-17.80
2018,12,06,07,39,-17.80
2018,12,06,07,40,-17.80
2018,12,06,07,41,-17.80
2018,12,06,07,42,-17.80
2018,12,06,07,43,-17.70
2018,12,06,07,44,-17.70
2018,12,06,07,45,-17.70
2018,12,06,07,46,-17.70
2018,12,06,07,47,-17.70
2018,12,06,07,48,-17.70
2018,12,06,07,49,-17.70
2018,12,06,07,50,-17.70
2018,12,06,07,51,-17.70
2018,12,06,07,52,-17.70
2018,12,06,07,53,-17.70
2018,12,06,07,54,-17.60
2018,12,06,07,55,-17.60
2018,12,06,07,56,-17.60
2018,12,06,07,57,-17.60
2018,12,06,07,58,-17.50
2018,12,06,07,59,-17.50
2018,12,06,08,00,-17.50
2018,12,06,08,01,-17.50
2018,12,06,08,02,-17.40
2018,12,06,08,03,-17.40
2018,12,06,08,04,-17.40
2018,12,06,08,05,-17.30
2018,12,06,08,06,-17.30
2018,12,06,08,07,-17.30
2018,12,06,08,08,-17.20
2018,12,06,08,09,-17.20
2018,12,06,08,10,-17.20
2018,12,06,08,11,-17.10
2018,12,06,08,12,-17.10
2018,12,06,08,13,-17.00
2018,12,06,08,14,-17.00
2018,12,06,08,15,-16.90
2018,12,06,08,16,-16.90
2018,12,06,08,17,-16.90
2018,12,06,08,18,-16.80
2018,12,06,08,19,-16.80
2018,12,06,08,20,-16.80
2018,12,06,08,21,-16.80
2018,12,06,08,22,-16.80
2018,12,06,08,23,-16.70
2018,12,06,08,24,-16.70
2018,12,06,08,25,-16.70
2018,12,06,08,26,-16.70
2018,12,06,08,27,-16.70
2018,12,06,08,28,-16.60
2018,12,06,08,29,-16.60
2018,12,06,08,30,-16.60
2018,12,06,08,31,-16.60
2018,12,06,08,32,-16.60
2018,12,06,08,33,-16.60
2018,12,06,08,34,-16.60
2018,12,06,08,35,-16.60
2018,12,06,08,36,-16.60
2018,12,06,08,37,-16.60
2018,12,06,08,38,-16.60
2018,12,06,08,39,-16.60
2018,12,06,08,40,-16.60
2018,12,06,08,41,-16.60
2018,12,06,08,42,-16.60
2018,12,06,08,43,-16.60
2018,12,06,08,44,-16.60
2018,12,06,08,45,-16.60
2018,12,06,08,46,-16.60
2018,12,06,08,47,-16.60
2018,12,06,08,48,-16.60
2018,12,06,08,49,-16.60
2018,12,06,08,50,-16.60
2018,12,06,08,51,-16.60
2018,12,06,08,52,-16.60
2018,12,06,08,53,-16.60
2018,12,06,08,54,-16.70
2018,12,06,08,55,-16.70
2018,12,06,08,56,-16.70
2018,12,06,08,57,-16.70
2018,12,06,08,58,-16.70
2018,12,06,08,59,-16.70
2018,12,06,09,00,-16.70
2018,12,06,09,01,-16.80
2018,12,06,09,02,-16.80
2018,12,06,09,03,-16.80
2018,12,06,09,04,-16.80
2018,12,06,09,05,-16.80
2018,12,06,09,06,-16.80
2018,12,06,09,07,-16.80
2018,12,06,09,08,-16.80
2018,12,06,09,09,-16.80
2018,12,06,09,10,-16.80
2018,12,06,09,11,-16.80
2018,12,06,09,12,-16.80
2018,12,06,09,13,-16.80
2018,12,06,09,14,-16.80
2018,12,06,09,15,-16.80
2018,12,06,09,16,-16.80
2018,12,06,09,17,-16.80
2018,12,06,09,18,-16.80
2018,12,06,09,19,-16.80
2018,12,06,09,20,-16.80
2018,12,06,09,21,-16.80
2018,12,06,09,22,-16.80
2018,12,06,09,23,-16.80
2018,12,06,09,24,-16.80
2018,12,06,09,25,-16.80
2018,12,06,09,26,-16.80
2018,12,06,09,27,-16.80
2018,12,06,09,28,-16.80
2018,12,06,09,29,-16.80
2018,12,06,09,30,-16.80
2018,12,06,09,31,-16.80
2018,12,06,09,32,-16.80
2018,12,06,09,33,-16.80
2018,12,06,09,34,-16.80
2018,12,06,09,35,-16.80
2018,12,06,09,36,-16.80
2018,12,06,09,37,-16.70
2018,12,06,09,38,-16.70
2018,12,06,09,39,-16.70
2018,12,06,09,40,-16.70
2018,12,06,09,41,-16.70
2018,12,06,09,42,-16.70
2018,12,06,09,43,-16.70
2018,12,06,09,44,-16.70
2018,12,06,09,45,-16.70
2018,12,06,09,46,-16.70
2018,12,06,09,47,-16.70
2018,12,06,09,48,-16.60
2018,12,06,09,49,-16.60
2018,12,06,09,50,-16.60
2018,12,06,09,51,-16.60
2018,12,06,09,52,-16.60
2018,12,06,09,53,-16.60
2018,12,06,09,54,-16.60
2018,12,06,09,55,-16.60
2018,12,06,09,56,-16.60
2018,12,06,09,57,-16.60
2018,12,06,09,58,-16.60
2018,12,06,09,59,-16.60
2018,12,06,10,00,-16.60
2018,12,06,10,01,-16.60
2018,12,06,10,02,-16.50
2018,12,06,10,03,-16.50
2018,12,06,10,04,-16.50
2018,12,06,10,05,-16.60
2018,12,06,10,06,-16.60
2018,12,06,10,07,-16.60
2018,12,06,10,08,-16.60
2018,12,06,10,09,-16.60
2018,12,06,10,10,-16.60
2018,12,06,10,11,-16.60
2018,12,06,10,12,-16.60
2018,12,06,10,13,-16.60
2018,12,06,10,14,-16.60
2018,12,06,10,15,-16.60
2018,12,06,10,16,-16.60
2018,12,06,10,17,-16.60
2018,12,06,10,18,-16.60
2018,12,06,10,19,-16.60
2018,12,06,10,20,-16.50
2018,12,06,10,21,-16.50
2018,12,06,10,22,-16.50
2018,12,06,10,23,-16.50
2018,12,06,10,24,-16.50
2018,12,06,10,25,-16.50
2018,12,06,10,26,-16.50
2018,12,06,10,27,-16.40
2018,12,06,10,28,-16.40
2018,12,06,10,29,-16.40
2018,12,06,10,30,-16.40
2018,12,06,10,31,-16.40
2018,12,06,10,32,-16.40
2018,12,06,10,33,-16.40
2018,12,06,10,34,-16.40
2018,12,06,10,35,-16.30
2018,12,06,10,36,-16.30
2018,12,06,10,37,-16.30
2018,12,06,10,38,-16.30
2018,12,06,10,39,-16.30
2018,12,06,10,40,-16.30
2018,12,06,10,41,-16.30
2018,12,06,10,42,-16.30
2018,12,06,10,43,-16.30
2018,12,06,10,44,-16.30
2018,12,06,10,45,-16.30
2018,12,06,10,46,-16.30
2018,12,06,10,47,-16.30
2018,12,06,10,48,-16.30
2018,12,06,10,49,-16.30
2018,12,06,10,50,-16.30
2018,12,06,10,51,-16.30
2018,12,06,10,52,-16.40
2018,12,06,10,53,-16.30
2018,12,06,10,54,-16.40
2018,12,06,10,55,-16.40
2018,12,06,10,56,-16.40
2018,12,06,10,57,-16.40
2018,12,06,10,58,-16.40
2018,12,06,10,59,-16.40
2018,12,06,11,00,-16.40
2018,12,06,11,01,-16.40
2018,12,06,11,02,-16.40
2018,12,06,11,03,-16.40
2018,12,06,11,04,-16.30
2018,12,06,11,05,-16.30
2018,12,06,11,06,-16.30
2018,12,06,11,07,-16.30
2018,12,06,11,08,-16.30
2018,12,06,11,09,-16.30
2018,12,06,11,10,-16.30
2018,12,06,11,11,-16.30
2018,12,06,11,12,-16.30
2018,12,06,11,13,-16.30
2018,12,06,11,14,-16.30
2018,12,06,11,15,-16.30
2018,12,06,11,16,-16.30
2018,12,06,11,17,-16.30
2018,12,06,11,18,-16.30
2018,12,06,11,19,-16.30
2018,12,06,11,20,-16.30
2018,12,06,11,21,-16.20
2018,12,06,11,22,-16.20
2018,12,06,11,23,-16.20
2018,12,06,11,24,-16.20
2018,12,06,11,25,-16.20
2018,12,06,11,26,-16.20
2018,12,06,11,27,-16.20
2018,12,06,11,28,-16.20
2018,12,06,11,29,-16.20
2018,12,06,11,30,-16.20
2018,12,06,11,31,-16.20
2018,12,06,11,32,-16.20
2018,12,06,11,33,-16.20
2018,12,06,11,34,-16.20
2018,12,06,11,35,-16.10
2018,12,06,11,36,-16.10
2018,12,06,11,37,-16.10
2018,12,06,11,38,-16.10
2018,12,06,11,39,-16.10
2018,12,06,11,40,-16.10
2018,12,06,11,41,-16.10
2018,12,06,11,42,-16.10
2018,12,06,11,43,-16.00
2018,12,06,11,44,-16.00
2018,12,06,11,45,-16.00
2018,12,06,11,46,-16.00
2018,12,06,11,47,-15.90
2018,12,06,11,48,-15.90
2018,12,06,11,49,-15.90
2018,12,06,11,50,-15.90
2018,12,06,11,51,-15.90
2018,12,06,11,52,-15.90
2018,12,06,11,53,-15.90
2018,12,06,11,54,-15.90
2018,12,06,11,55,-15.90
2018,12,06,11,56,-15.90
2018,12,06,11,57,-15.80
2018,12,06,11,58,-15.80
2018,12,06,11,59,-15.80
2018,12,06,12,00,-15.80
2018,12,06,12,01,-15.80
2018,12,06,12,02,-15.80
2018,12,06,12,03,-15.80
2018,12,06,12,04,-15.80
2018,12,06,12,05,-15.80
2018,12,06,12,06,-15.80
2018,12,06,12,07,-15.80
2018,12,06,12,08,-15.80
2018,12,06,12,09,-15.80
2018,12,06,12,10,-15.70
2018,12,06,12,11,-15.70
2018,12,06,12,12,-15.70
2018,12,06,12,13,-15.70
2018,12,06,12,14,-15.70
2018,12,06,12,15,-15.70
2018,12,06,12,16,-15.70
2018,12,06,12,17,-15.70
2018,12,06,12,18,-15.70
2018,12,06,12,19,-15.70
2018,12,06,12,20,-15.70
2018,12,06,12,21,-15.70
2018,12,06,12,22,-15.60
2018,12,06,12,23,-15.60
2018,12,06,12,24,-15.60
2018,12,06,12,25,-15.60
2018,12,06,12,26,-15.60
2018,12,06,12,27,-15.60
2018,12,06,12,28,-15.60
2018,12,06,12,29,-15.50
2018,12,06,12,30,-15.50
2018,12,06,12,31,-15.50
2018,12,06,12,32,-15.40
2018,12,06,12,33,-15.40
2018,12,06,12,34,-15.40
2018,12,06,12,35,-15.40
2018,12,06,12,36,-15.40
2018,12,06,12,37,-15.30
2018,12,06,12,38,-15.30
2018,12,06,12,39,-15.30
2018,12,06,12,40,-15.30
2018,12,06,12,41,-15.30
2018,12,06,12,42,-15.20
2018,12,06,12,43,-15.20
2018,12,06,12,44,-15.20
2018,12,06,12,45,-15.20
2018,12,06,12,46,-15.20
2018,12,06,12,47,-15.20
2018,12,06,12,48,-15.20
2018,12,06,12,49,-15.20
2018,12,06,12,50,-15.20
2018,12,06,12,51,-15.20
2018,12,06,12,52,-15.20
2018,12,06,12,53,-15.20
2018,12,06,12,54,-15.20
2018,12,06,12,55,-15.20
2018,12,06,12,56,-15.20
2018,12,06,12,57,-15.10
2018,12,06,12,58,-15.10
2018,12,06,12,59,-15.10
2018,12,06,13,00,-15.10
2018,12,06,13,01,-15.10
2018,12,06,13,02,-15.10
2018,12,06,13,03,-15.10
2018,12,06,13,04,-15.10
2018,12,06,13,05,-15.10
2018,12,06,13,06,-15.10
2018,12,06,13,07,-15.10
2018,12,06,13,08,-15.10
2018,12,06,13,09,-15.10
2018,12,06,13,10,-15.10
2018,12,06,13,11,-15.10
2018,12,06,13,12,-15.00
2018,12,06,13,13,-15.00
2018,12,06,13,14,-15.00
2018,12,06,13,15,-15.00
2018,12,06,13,16,-15.00
2018,12,06,13,17,-15.00
2018,12,06,13,18,-15.00
2018,12,06,13,19,-15.00
2018,12,06,13,20,-15.00
2018,12,06,13,21,-15.00
2018,12,06,13,22,-15.00
2018,12,06,13,23,-15.00
2018,12,06,13,24,-15.00
2018,12,06,13,25,-15.00
2018,12,06,13,26,-15.00
2018,12,06,13,27,-15.00
2018,12,06,13,28,-14.90
2018,12,06,13,29,-14.90
2018,12,06,13,30,-14.90
2018,12,06,13,31,-14.90
2018,12,06,13,32,-14.90
2018,12,06,13,33,-14.90
2018,12,06,13,34,-14.90
2018,12,06,13,35,-14.80
2018,12,06,13,36,-14.80
2018,12,06,13,37,-14.80
2018,12,06,13,38,-14.80
2018,12,06,13,39,-14.80
2018,12,06,13,40,-14.80
2018,12,06,13,41,-14.80
2018,12,06,13,42,-14.80
2018,12,06,13,43,-14.80
2018,12,06,13,44,-14.80
2018,12,06,13,45,-14.80
2018,12,06,13,46,-14.80
2018,12,06,13,47,-14.70
2018,12,06,13,48,-14.70
2018,12,06,13,49,-14.70
2018,12,06,13,50,-14.70
2018,12,06,13,51,-14.70
2018,12,06,13,52,-14.70
2018,12,06,13,53,-14.70
2018,12,06,13,54,-14.60
2018,12,06,13,55,-14.60
2018,12,06,13,56,-14.60
2018,12,06,13,57,-14.60
2018,12,06,13,58,-14.70
2018,12,06,13,59,-14.60
2018,12,06,14,00,-14.60
2018,12,06,14,01,-14.70
2018,12,06,14,02,-14.70
2018,12,06,14,03,-14.60
2018,12,06,14,04,-14.60
2018,12,06,14,05,-14.60
2018,12,06,14,06,-14.60
2018,12,06,14,07,-14.60
2018,12,06,14,08,-14.60
2018,12,06,14,09,-14.60
2018,12,06,14,10,-14.50
2018,12,06,14,11,-14.50
2018,12,06,14,12,-14.50
2018,12,06,14,13,-14.50
2018,12,06,14,14,-14.40
2018,12,06,14,15,-14.40
2018,12,06,14,16,-14.40
2018,12,06,14,17,-14.40
2018,12,06,14,18,-14.40
2018,12,06,14,19,-14.40
2018,12,06,14,20,-14.40
2018,12,06,14,21,-14.40
2018,12,06,14,22,-14.40
2018,12,06,14,23,-14.40
2018,12,06,14,24,-14.50
2018,12,06,14,25,-14.50
2018,12,06,14,26,-14.50
2018,12,06,14,27,-14.50
2018,12,06,14,28,-14.50
2018,12,06,14,29,-14.50
2018,12,06,14,30,-14.50
2018,12,06,14,31,-14.50
2018,12,06,14,32,-14.50
2018,12,06,14,33,-14.50
2018,12,06,14,34,-14.50
2018,12,06,14,35,-14.50
2018,12,06,14,36,-14.50
2018,12,06,14,37,-14.50
2018,12,06,14,38,-14.50
2018,12,06,14,39,-14.50
2018,12,06,14,40,-14.50
2018,12,06,14,41,-14.50
2018,12,06,14,42,-14.50
2018,12,06,14,43,-14.50
2018,12,06,14,44,-14.50
2018,12,06,14,45,-14.50
2018,12,06,14,46,-14.50
2018,12,06,14,47,-14.50
2018,12,06,14,48,-14.50
2018,12,06,14,49,-14.50
2018,12,06,14,50,-14.50
2018,12,06,14,51,-14.50
2018,12,06,14,52,-14.50
2018,12,06,14,53,-14.50
2018,12,06,14,54,-14.40
2018,12,06,14,55,-14.40
2018,12,06,14,56,-14.40
2018,12,06,14,57,-14.40
2018,12,06,14,58,-14.40
2018,12,06,14,59,-14.40
2018,12,06,15,00,-14.40
2018,12,06,15,01,-14.40
2018,12,06,15,02,-14.40
2018,12,06,15,03,-14.40
2018,12,06,15,04,-14.30
2018,12,06,15,05,-14.30
2018,12,06,15,06,-14.30
2018,12,06,15,07,-14.30
2018,12,06,15,08,-14.30
2018,12,06,15,09,-14.30
2018,12,06,15,10,-14.30
2018,12,06,15,11,-14.30
2018,12,06,15,12,-14.30
2018,12,06,15,13,-14.30
2018,12,06,15,14,-14.30
2018,12,06,15,15,-14.30
2018,12,06,15,16,-14.30
2018,12,06,15,17,-14.20
2018,12,06,15,18,-14.20
2018,12,06,15,19,-14.20
2018,12,06,15,20,-14.20
2018,12,06,15,21,-14.20
2018,12,06,15,22,-14.20
2018,12,06,15,23,-14.20
2018,12,06,15,24,-14.20
2018,12,06,15,25,-14.20
2018,12,06,15,26,-14.10
2018,12,06,15,27,-14.10
2018,12,06,15,28,-14.10
2018,12,06,15,29,-14.10
2018,12,06,15,30,-14.10
2018,12,06,15,31,-14.10
2018,12,06,15,32,-14.10
2018,12,06,15,33,-14.00
2018,12,06,15,34,-14.00
2018,12,06,15,35,-14.00
2018,12,06,15,36,-14.00
2018,12,06,15,37,-14.00
2018,12,06,15,38,-13.90
2018,12,06,15,39,-13.90
2018,12,06,15,40,-13.90
2018,12,06,15,41,-13.90
2018,12,06,15,42,-13.90
2018,12,06,15,43,-13.90
2018,12,06,15,44,-13.90
2018,12,06,15,45,-13.90
2018,12,06,15,46,-13.90
2018,12,06,15,47,-13.90
2018,12,06,15,48,-13.90
2018,12,06,15,49,-13.90
2018,12,06,15,50,-13.90
2018,12,06,15,51,-13.90
2018,12,06,15,52,-13.90
2018,12,06,15,53,-13.90
2018,12,06,15,54,-13.90
2018,12,06,15,55,-13.90
2018,12,06,15,56,-13.90
2018,12,06,15,57,-13.90
2018,12,06,15,58,-13.90
2018,12,06,15,59,-13.90
2018,12,06,16,00,-13.90
2018,12,06,16,01,-13.90
2018,12,06,16,02,-13.90
2018,12,06,16,03,-13.90
2018,12,06,16,04,-13.90
2018,12,06,16,05,-13.90
2018,12,06,16,06,-13.90
2018,12,06,16,07,-13.90
2018,12,06,16,08,-13.90
2018,12,06,16,09,-13.90
2018,12,06,16,10,-13.90
2018,12,06,16,11,-13.90
2018,12,06,16,12,-13.90
2018,12,06,16,13,-13.90
2018,12,06,16,14,-14.00
2018,12,06,16,15,-13.90
2018,12,06,16,16,-13.90
2018,12,06,16,17,-13.90
2018,12,06,16,18,-13.90
2018,12,06,16,19,-13.90
2018,12,06,16,20,-13.90
2018,12,06,16,21,-13.90
2018,12,06,16,22,-13.90
2018,12,06,16,23,-13.90
2018,12,06,16,24,-14.00
2018,12,06,16,25,-14.00
2018,12,06,16,26,-14.00
2018,12,06,16,27,-13.90
2018,12,06,16,28,-13.90
2018,12,06,16,29,-13.90
2018,12,06,16,30,-13.90
2018,12,06,16,31,-13.90
2018,12,06,16,32,-13.90
2018,12,06,16,33,-13.90
2018,12,06,16,34,-13.90
2018,12,06,16,35,-13.90
2018,12,06,16,36,-13.90
2018,12,06,16,37,-13.90